When you browse on this site, cookies collect data to enhance your experience and personalize the content and advertising you see.
Visit our Privacy Policy to learn more. By continuing to use the site, you agree to this use of cookies and data.

Hourly Weather Belém

Today, 20 September, Sunday

Time Temperature Precipitation Wind Pressure Humidity
00:00 +26°C° 0 mm 3 mps 758 mmHg 92%
01:00 +26°C° 0 mm 3 mps 758 mmHg 93%
02:00 +25°C° 0 mm 3 mps 757 mmHg 93%
03:00 +25°C° 0 mm 3 mps 756 mmHg 94%
04:00 +25°C° 0 mm 3 mps 757 mmHg 94%
05:00 +25°C° 0 mm 3 mps 757 mmHg 94%
06:00 +25°C° 0 mm 3 mps 757 mmHg 94%
07:00 +27°C° 0 mm 3 mps 757 mmHg 86%
08:00 +29°C° 0 mm 3 mps 758 mmHg 78%
09:00 +30°C° 0 mm 3 mps 758 mmHg 69%
10:00 +33°C° 0 mm 3 mps 758 mmHg 62%
11:00 +35°C° 0 mm 3 mps 758 mmHg 54%
12:00 +37°C° 0 mm 3 mps 757 mmHg 47%
13:00 +36°C° 0.1 mm 4 mps 756 mmHg 51%
14:00 +35°C° 0.1 mm 4 mps 756 mmHg 55%
15:00 +35°C° 0.1 mm 5 mps 755 mmHg 60%
16:00 +33°C° 0 mm 5 mps 755 mmHg 65%
17:00 +32°C° 0 mm 5 mps 755 mmHg 70%
18:00 +30°C° 0 mm 5 mps 755 mmHg 76%
19:00 +29°C° 0 mm 5 mps 756 mmHg 77%
20:00 +29°C° 0 mm 5 mps 757 mmHg 79%
21:00 +28°C° 0 mm 5 mps 757 mmHg 81%
22:00 +27°C° 0 mm 5 mps 757 mmHg 83%
23:00 +27°C° 0 mm 4 mps 757 mmHg 86%

Tomorrow, 21 September, Monday

Time Temperature Precipitation Wind Pressure Humidity
00:00 +26°C° 0 mm 4 mps 758 mmHg 88%
01:00 +26°C° 0 mm 3 mps 757 mmHg 89%
02:00 +26°C° 0 mm 3 mps 756 mmHg 90%
03:00 +26°C° 0 mm 3 mps 756 mmHg 91%
04:00 +26°C° 0 mm 3 mps 756 mmHg 90%
05:00 +26°C° 0 mm 3 mps 756 mmHg 90%
06:00 +26°C° 0 mm 3 mps 757 mmHg 89%
07:00 +28°C° 0 mm 4 mps 757 mmHg 82%
08:00 +29°C° 0 mm 4 mps 758 mmHg 75%
09:00 +32°C° 0 mm 4 mps 758 mmHg 68%
10:00 +34°C° 0 mm 3 mps 758 mmHg 62%
11:00 +35°C° 0 mm 3 mps 758 mmHg 56%
12:00 +37°C° 0 mm 3 mps 758 mmHg 50%
13:00 +36°C° 0.6 mm 4 mps 757 mmHg 57%
14:00 +35°C° 0.6 mm 4 mps 756 mmHg 64%
15:00 +34°C° 0.6 mm 4 mps 755 mmHg 71%
16:00 +33°C° 0.5 mm 4 mps 756 mmHg 74%
17:00 +30°C° 0.5 mm 4 mps 756 mmHg 77%
18:00 +29°C° 0.5 mm 3 mps 756 mmHg 80%
19:00 +29°C° 0 mm 3 mps 756 mmHg 81%
20:00 +28°C° 0 mm 4 mps 757 mmHg 81%
21:00 +27°C° 0 mm 4 mps 757 mmHg 82%
22:00 +27°C° 0 mm 4 mps 757 mmHg 82%
23:00 +27°C° 0 mm 4 mps 757 mmHg 82%

Day after tomorrow, 22 September, Tuesday

Time Temperature Precipitation Wind Pressure Humidity
00:00 +27°C° 0 mm 4 mps 758 mmHg 82%
01:00 +26°C° 0 mm 4 mps 757 mmHg 84%
02:00 +26°C° 0 mm 4 mps 757 mmHg 87%
03:00 +25°C° 0 mm 3 mps 756 mmHg 89%
04:00 +25°C° 0 mm 3 mps 756 mmHg 90%
05:00 +25°C° 0 mm 3 mps 757 mmHg 92%
06:00 +25°C° 0 mm 3 mps 757 mmHg 93%
07:00 +26°C° 0 mm 3 mps 757 mmHg 85%
08:00 +28°C° 0 mm 4 mps 758 mmHg 77%
09:00 +30°C° 0 mm 4 mps 759 mmHg 70%
10:00 +33°C° 0 mm 3 mps 759 mmHg 62%
11:00 +35°C° 0 mm 3 mps 759 mmHg 55%
12:00 +37°C° 0 mm 3 mps 758 mmHg 47%
13:00 +36°C° 0.1 mm 4 mps 758 mmHg 50%
14:00 +35°C° 0.1 mm 4 mps 757 mmHg 54%
15:00 +35°C° 0.1 mm 5 mps 756 mmHg 57%
16:00 +34°C° 0.1 mm 5 mps 757 mmHg 60%
17:00 +33°C° 0.1 mm 4 mps 757 mmHg 64%
18:00 +32°C° 0.1 mm 4 mps 757 mmHg 67%
19:00 +30°C° 0 mm 4 mps 757 mmHg 69%
20:00 +29°C° 0 mm 4 mps 758 mmHg 71%
21:00 +28°C° 0 mm 5 mps 758 mmHg 72%
22:00 +27°C° 0 mm 4 mps 758 mmHg 76%
23:00 +27°C° 0 mm 4 mps 758 mmHg 79%

23 September, Wednesday

Time Temperature Precipitation Wind Pressure Humidity
00:00 +26°C° 0 mm 4 mps 757 mmHg 82%
01:00 +26°C° 0 mm 4 mps 757 mmHg 84%
02:00 +25°C° 0 mm 3 mps 757 mmHg 87%
03:00 +25°C° 0 mm 3 mps 756 mmHg 90%
04:00 +24°C° 0 mm 3 mps 757 mmHg 92%
05:00 +24°C° 0 mm 3 mps 757 mmHg 93%
06:00 +24°C° 0 mm 3 mps 757 mmHg 94%
07:00 +26°C° 0 mm 3 mps 758 mmHg 85%
08:00 +28°C° 0 mm 4 mps 758 mmHg 77%
09:00 +30°C° 0 mm 4 mps 759 mmHg 68%
10:00 +33°C° 0 mm 4 mps 759 mmHg 60%
11:00 +35°C° 0 mm 3 mps 758 mmHg 52%
12:00 +37°C° 0 mm 3 mps 758 mmHg 44%
13:00 +36°C° 0 mm 4 mps 758 mmHg 48%
14:00 +35°C° 0 mm 5 mps 757 mmHg 53%
15:00 +34°C° 0 mm 6 mps 756 mmHg 58%
16:00 +33°C° 0.1 mm 5 mps 756 mmHg 63%
17:00 +32°C° 0.1 mm 4 mps 757 mmHg 68%
18:00 +30°C° 0.1 mm 3 mps 757 mmHg 74%
19:00 +29°C° 0 mm 4 mps 757 mmHg 74%
20:00 +29°C° 0 mm 4 mps 758 mmHg 75%
21:00 +28°C° 0 mm 4 mps 758 mmHg 75%
22:00 +28°C° 0 mm 4 mps 758 mmHg 78%
23:00 +27°C° 0 mm 4 mps 758 mmHg 80%

24 September, Thursday

Time Temperature Precipitation Wind Pressure Humidity
00:00 +27°C° 0 mm 4 mps 758 mmHg 82%
01:00 +26°C° 0 mm 4 mps 757 mmHg 84%
02:00 +26°C° 0 mm 4 mps 757 mmHg 86%
03:00 +26°C° 0 mm 4 mps 756 mmHg 88%
04:00 +25°C° 0 mm 4 mps 757 mmHg 89%
05:00 +25°C° 0 mm 4 mps 757 mmHg 90%
06:00 +25°C° 0 mm 3 mps 758 mmHg 91%
07:00 +26°C° 0 mm 3 mps 758 mmHg 84%
08:00 +28°C° 0 mm 3 mps 759 mmHg 77%
09:00 +29°C° 0 mm 3 mps 759 mmHg 69%
10:00 +33°C° 0 mm 3 mps 759 mmHg 61%
11:00 +35°C° 0 mm 3 mps 759 mmHg 52%
12:00 +37°C° 0 mm 3 mps 758 mmHg 43%
13:00 +36°C° 0.1 mm 4 mps 757 mmHg 49%
14:00 +35°C° 0.1 mm 4 mps 757 mmHg 54%
15:00 +34°C° 0.1 mm 5 mps 756 mmHg 59%
16:00 +33°C° 0.4 mm 5 mps 756 mmHg 65%
17:00 +32°C° 0.4 mm 5 mps 756 mmHg 70%
18:00 +30°C° 0.4 mm 5 mps 756 mmHg 76%
19:00 +29°C° 0.5 mm 5 mps 757 mmHg 79%
20:00 +28°C° 0.5 mm 5 mps 757 mmHg 83%
21:00 +27°C° 0.5 mm 4 mps 758 mmHg 86%
22:00 +27°C° 0 mm 4 mps 758 mmHg 87%
23:00 +26°C° 0 mm 4 mps 758 mmHg 88%

25 September, Friday

Time Temperature Precipitation Wind Pressure Humidity
00:00 +26°C° 0 mm 4 mps 758 mmHg 89%
01:00 +26°C° 0 mm 4 mps 757 mmHg 89%
02:00 +26°C° 0 mm 4 mps 757 mmHg 89%
03:00 +26°C° 0 mm 4 mps 756 mmHg 89%
04:00 +26°C° 0 mm 3 mps 756 mmHg 91%
05:00 +25°C° 0 mm 3 mps 757 mmHg 92%
06:00 +25°C° 0 mm 3 mps 757 mmHg 94%
07:00 +27°C° 0 mm 3 mps 758 mmHg 86%
08:00 +28°C° 0 mm 3 mps 758 mmHg 77%
09:00 +30°C° 0 mm 3 mps 759 mmHg 68%
10:00 +33°C° 0 mm 3 mps 759 mmHg 61%
11:00 +35°C° 0 mm 3 mps 758 mmHg 54%
12:00 +37°C° 0 mm 3 mps 758 mmHg 46%
13:00 +35°C° 0.2 mm 3 mps 757 mmHg 52%
14:00 +34°C° 0.2 mm 4 mps 756 mmHg 58%
15:00 +33°C° 0.2 mm 5 mps 756 mmHg 65%
16:00 +32°C° 0.1 mm 5 mps 756 mmHg 67%
17:00 +30°C° 0.1 mm 5 mps 756 mmHg 70%
18:00 +30°C° 0.1 mm 5 mps 756 mmHg 73%
19:00 +29°C° 0 mm 5 mps 756 mmHg 73%
20:00 +28°C° 0 mm 5 mps 757 mmHg 74%
21:00 +28°C° 0 mm 5 mps 757 mmHg 75%
22:00 +27°C° 0 mm 4 mps 757 mmHg 78%
23:00 +27°C° 0 mm 4 mps 758 mmHg 81%
Show more